sat.trackr.live / text

‹ back to catalog

STARLINK-3299

NORAD 50831 · 2022-001AE

PAYLOAD ACTIVE UNKNOWN

§ Identity

Operator
Country
US
Launch date
2022-01-06
Launch site
AFETR
Launch vehicle
Mass (kg)
RCS (m²)

Purposes: comms

External: N2YO · Heavens-Above · Gunter

§ Orbital elements

Epoch: 2026-05-25T02:28:45.061248Z

Period
95.44 min
Inclination
53.2144°
Eccentricity
0.0001148
Mean motion
15.08837850 rev/d
Perigee alt
539.0 km
Apogee alt
540.5 km
Semi-major
6,917.9 km
B*
2.8747e-5
RAAN
186.1540°
Arg perigee
86.8472°
Mean anomaly
273.2651°
Rev number
24,194

§ Raw data

STARLINK-32991 50831U 22001AE  26145.10329932  .00000170  00000+0  28747-4 0  99982 50831  53.2144 186.1540 0001148  86.8472 273.2651 15.08837850241943

JSON: /api/v1/satellites/50831 · /tle

For live sub-satellite position, see the globe view (requires WebGL).

§ Visibility from observer

Set your observer location to see the next 7 days of passes ≥ 10°. The values pass through the URL so the page stays shareable.

No JS? Fill the form by hand. The geolocation button needs JavaScript.